TimeCDT,TemperatureF,Dew PointF,Humidity,Sea Level PressureIn,VisibilityMPH,Wind Direction,Wind SpeedMPH,Gust SpeedMPH,PrecipitationIn,Events,Conditions,WindDirDegrees,DateUTC
12:14 AM,28.0,21.2,76,30.24,10.0,WNW,8.1,-,N/A,,Overcast,290,2013-03-26 05:14:00
12:35 AM,27.5,21.0,77,30.24,10.0,West,8.1,-,N/A,,Overcast,280,2013-03-26 05:35:00
12:54 AM,27.1,20.8,77,30.24,10.0,WNW,9.2,-,N/A,,Overcast,290,2013-03-26 05:54:00
1:14 AM,26.2,20.3,78,30.24,10.0,WNW,6.9,-,N/A,,Overcast,290,2013-03-26 06:14:00
1:35 AM,25.7,19.9,79,30.25,10.0,WNW,3.5,-,N/A,,Overcast,290,2013-03-26 06:35:00
1:54 AM,25.3,19.4,78,30.24,10.0,West,5.8,-,N/A,,Overcast,280,2013-03-26 06:54:00
2:14 AM,24.6,19.2,80,30.25,10.0,WNW,5.8,-,N/A,,Mostly Cloudy,300,2013-03-26 07:14:00
2:35 AM,23.9,18.7,80,30.24,10.0,WNW,3.5,-,N/A,,Scattered Clouds,290,2013-03-26 07:35:00
2:54 AM,23.4,18.5,82,30.24,10.0,West,3.5,-,N/A,,Clear,280,2013-03-26 07:54:00
3:14 AM,22.8,18.1,82,30.25,10.0,WNW,3.5,-,N/A,,Clear,290,2013-03-26 08:14:00
3:34 AM,22.6,17.8,82,30.24,10.0,NW,3.5,-,N/A,,Mostly Cloudy,310,2013-03-26 08:34:00
3:54 AM,22.1,17.6,83,30.24,10.0,West,5.8,-,N/A,,Mostly Cloudy,280,2013-03-26 08:54:00
4:15 AM,22.1,17.6,83,30.24,10.0,WNW,4.6,-,N/A,,Overcast,300,2013-03-26 09:15:00
4:34 AM,22.1,17.6,83,30.25,10.0,WNW,4.6,-,N/A,,Overcast,290,2013-03-26 09:34:00
4:54 AM,21.9,17.4,83,30.25,10.0,NW,4.6,-,N/A,,Overcast,310,2013-03-26 09:54:00
5:15 AM,21.9,17.6,83,30.26,10.0,NW,5.8,-,N/A,,Overcast,310,2013-03-26 10:15:00
5:34 AM,21.2,17.1,84,30.26,10.0,WNW,5.8,-,N/A,,Overcast,300,2013-03-26 10:34:00
5:54 AM,21.2,16.9,83,30.26,10.0,WNW,4.6,-,N/A,,Overcast,300,2013-03-26 10:54:00
6:15 AM,21.2,17.1,84,30.26,10.0,WNW,3.5,-,N/A,,Mostly Cloudy,290,2013-03-26 11:15:00
6:34 AM,21.2,17.1,84,30.27,10.0,WNW,4.6,-,N/A,,Overcast,290,2013-03-26 11:34:00
6:54 AM,21.4,17.1,83,30.27,10.0,WNW,3.5,-,N/A,,Overcast,290,2013-03-26 11:54:00
7:15 AM,21.2,16.7,83,30.27,10.0,NW,4.6,-,N/A,,Overcast,310,2013-03-26 12:15:00
7:34 AM,21.0,16.7,83,30.28,10.0,NW,5.8,-,N/A,,Overcast,310,2013-03-26 12:34:00
7:54 AM,21.2,16.7,83,30.28,10.0,WNW,3.5,-,N/A,,Overcast,300,2013-03-26 12:54:00
8:15 AM,21.2,16.7,83,30.29,10.0,NW,3.5,-,N/A,,Overcast,310,2013-03-26 13:15:00
8:34 AM,21.2,16.5,82,30.29,10.0,NW,3.5,-,N/A,,Overcast,320,2013-03-26 13:34:00
8:54 AM,22.1,16.9,80,30.29,10.0,NW,4.6,-,N/A,,Overcast,310,2013-03-26 13:54:00
9:14 AM,23.5,17.8,79,30.29,10.0,Calm,Calm,-,N/A,,Overcast,0,2013-03-26 14:14:00
9:34 AM,24.4,17.8,76,30.30,10.0,Calm,Calm,-,N/A,,Overcast,0,2013-03-26 14:34:00
9:55 AM,25.3,18.3,75,30.30,10.0,Calm,Calm,-,N/A,,Overcast,0,2013-03-26 14:55:00
10:14 AM,25.7,18.1,73,30.30,10.0,Calm,Calm,-,N/A,,Overcast,0,2013-03-26 15:14:00
10:34 AM,27.0,18.7,71,30.30,10.0,Calm,Calm,-,N/A,,Overcast,0,2013-03-26 15:34:00
10:55 AM,26.6,18.5,71,30.30,10.0,WSW,3.5,-,N/A,,Overcast,240,2013-03-26 15:55:00
11:14 AM,28.0,18.9,68,30.30,10.0,WSW,3.5,-,N/A,,Overcast,240,2013-03-26 16:14:00
11:34 AM,29.3,19.4,67,30.30,10.0,Calm,Calm,-,N/A,,Overcast,0,2013-03-26 16:34:00
11:55 AM,30.9,19.6,63,30.30,10.0,Calm,Calm,-,N/A,,Overcast,0,2013-03-26 16:55:00
12:14 PM,31.5,20.3,63,30.30,10.0,West,4.6,-,N/A,,Overcast,270,2013-03-26 17:14:00
12:34 PM,32.0,19.9,61,30.30,10.0,West,3.5,-,N/A,,Mostly Cloudy,260,2013-03-26 17:34:00
12:55 PM,32.2,20.8,63,30.30,10.0,WSW,4.6,-,N/A,,Mostly Cloudy,240,2013-03-26 17:55:00
1:14 PM,33.8,21.4,60,30.29,10.0,WSW,5.8,-,N/A,,Overcast,250,2013-03-26 18:14:00
1:34 PM,34.2,21.2,59,30.29,10.0,SW,3.5,-,N/A,,Overcast,220,2013-03-26 18:34:00
1:54 PM,34.7,21.0,57,30.29,10.0,WSW,4.6,-,N/A,,Overcast,240,2013-03-26 18:54:00
2:14 PM,35.1,20.8,56,30.29,10.0,WSW,5.8,-,N/A,,Scattered Clouds,240,2013-03-26 19:14:00
2:34 PM,35.6,21.0,55,30.28,10.0,WSW,6.9,-,N/A,,Clear,240,2013-03-26 19:34:00
2:54 PM,35.6,20.8,55,30.28,10.0,SW,5.8,-,N/A,,Clear,230,2013-03-26 19:54:00
3:15 PM,35.6,21.2,56,30.28,10.0,WSW,6.9,-,N/A,,Clear,240,2013-03-26 20:15:00
3:34 PM,35.6,21.4,56,30.28,10.0,WSW,5.8,-,N/A,,Clear,250,2013-03-26 20:34:00
3:54 PM,35.6,21.9,58,30.27,10.0,WSW,6.9,-,N/A,,Clear,240,2013-03-26 20:54:00
4:15 PM,35.8,21.9,57,30.27,10.0,WSW,9.2,-,N/A,,Mostly Cloudy,250,2013-03-26 21:15:00
4:34 PM,35.6,22.3,58,30.27,10.0,WSW,6.9,-,N/A,,Overcast,250,2013-03-26 21:34:00
4:54 PM,35.4,21.9,58,30.26,10.0,WSW,6.9,-,N/A,,Overcast,240,2013-03-26 21:54:00
5:15 PM,35.8,22.5,58,30.26,10.0,WSW,5.8,-,N/A,,Mostly Cloudy,250,2013-03-26 22:15:00
5:34 PM,35.6,21.7,57,30.26,10.0,WSW,5.8,-,N/A,,Overcast,250,2013-03-26 22:34:00
5:54 PM,35.6,22.1,58,30.26,10.0,WSW,5.8,-,N/A,,Overcast,240,2013-03-26 22:54:00
6:15 PM,34.0,21.9,61,30.26,10.0,WSW,6.9,-,N/A,,Scattered Clouds,240,2013-03-26 23:15:00
6:34 PM,34.3,22.5,62,30.26,10.0,WSW,4.6,-,N/A,,Clear,250,2013-03-26 23:34:00
6:54 PM,34.0,21.9,61,30.26,10.0,WSW,5.8,-,N/A,,Clear,240,2013-03-26 23:54:00
7:15 PM,33.4,22.1,63,30.26,10.0,WSW,5.8,-,N/A,,Clear,240,2013-03-27 00:15:00
7:34 PM,32.2,21.2,64,30.27,10.0,Calm,Calm,-,N/A,,Clear,0,2013-03-27 00:34:00
7:54 PM,31.6,21.2,65,30.27,10.0,Calm,Calm,-,N/A,,Clear,0,2013-03-27 00:54:00
8:15 PM,30.2,21.0,69,30.27,10.0,Calm,Calm,-,N/A,,Clear,0,2013-03-27 01:15:00
8:34 PM,29.1,20.5,70,30.28,10.0,Calm,Calm,-,N/A,,Clear,0,2013-03-27 01:34:00
8:54 PM,29.3,20.8,71,30.28,10.0,West,3.5,-,N/A,,Clear,270,2013-03-27 01:54:00
9:15 PM,28.9,20.3,70,30.29,10.0,Calm,Calm,-,N/A,,Clear,0,2013-03-27 02:15:00
9:35 PM,27.5,19.9,73,30.29,10.0,Calm,Calm,-,N/A,,Clear,0,2013-03-27 02:35:00
9:54 PM,26.8,19.8,75,30.29,10.0,Calm,Calm,-,N/A,,Clear,0,2013-03-27 02:54:00
10:15 PM,26.6,19.4,74,30.29,10.0,Calm,Calm,-,N/A,,Clear,0,2013-03-27 03:15:00
10:35 PM,27.0,19.6,74,30.29,10.0,Calm,Calm,-,N/A,,Clear,0,2013-03-27 03:35:00
10:54 PM,25.7,19.2,76,30.29,10.0,Calm,Calm,-,N/A,,Clear,0,2013-03-27 03:54:00
11:15 PM,24.8,18.7,78,30.30,10.0,Calm,Calm,-,N/A,,Clear,0,2013-03-27 04:15:00
11:34 PM,23.9,18.9,81,30.31,10.0,Calm,Calm,-,N/A,,Clear,0,2013-03-27 04:34:00
11:54 PM,23.4,18.5,82,30.31,10.0,Calm,Calm,-,N/A,,Clear,0,2013-03-27 04:54:00